Вернуться в каталог

STARLINK-1573

АктивенСвязьVLEO
NORAD 46061·PAYLOAD·🇺🇸 United States

Запущен Aug 7, 2020 с Cape Canaveral Space Force Station

Loading…

Ближайшие Пролёты (ближайшие 24 часа)

TLE

СвежийSource: CelesTrak SupGP

Эпоха: Sep 15, 2026, 01:24 UTC

1 46061C 20055AL  26258.05881944  .00045150  00000+0  14516-2 0  2582
2 46061  53.1595 312.6098 0001160  87.7870 113.0008 15.31685780    19

Отслеживайте STARLINK-1573 в реальном времени с AllMySat

Download on the App Store